CW4367 Weather Reports


time (UTC)temp
F
wind
direction
speed
knots
gust
knots
rain 1hr
in
rain 24hr
in
rain mn
in
humidity
%
barometer
mb
20260502180518 87 0.0 0.0 0.00 0.00 0.00 9 1013.3
20260502164018 82 0.0 0.0 0.00 0.00 0.00 11 1013.9
20260502163518 81 0.0 0.0 0.00 0.00 0.00 11 1013.9
20260502163039 81 0.0 0.0 0.00 0.00 0.00 11 1013.9
20260502162522 80 0.0 0.0 0.00 0.00 0.00 11 1013.9
20260502162022 80 0.0 0.0 0.00 0.00 0.00 11 1013.9
20260502161539 80 0.0 0.0 0.00 0.00 0.00 11 1013.8
20260502161025 79 0.0 0.0 0.00 0.00 0.00 11 1014.0
20260502160525 79 0.0 0.0 0.00 0.00 0.00 11 1013.9
20260502152022 77 0.0 0.0 0.00 0.00 0.00 12 1013.9
20260502151546 76 0.0 0.0 0.00 0.00 0.00 12 1013.9
20260502151022 76 0.0 0.0 0.00 0.00 0.00 12 1013.9
20260502150520 76 0.0 0.0 0.00 0.00 0.00 12 1013.7
20260502130523 72 0.0 0.0 0.00 0.00 0.00 13 1012.8
20260502123523 72 0.0 0.0 0.00 0.00 0.00 13 1012.6
20260502123041 72 0.0 0.0 0.00 0.00 0.00 13 1012.7
20260502122522 72 0.0 0.0 0.00 0.00 0.00 12 1012.5
20260502122022 72 0.0 0.0 0.00 0.00 0.00 12 1012.4
20260502121541 72 0.0 0.0 0.00 0.00 0.00 12 1012.4
20260502121022 73 0.0 0.0 0.00 0.00 0.00 12 1012.4
20260502120522 73 0.0 0.0 0.00 0.00 0.00 12 1012.4
20260502115521 73 0.0 0.0 0.00 0.00 0.00 12 1012.2
20260502115019 73 0.0 0.0 0.00 0.00 0.00 12 1012.2
20260502114559 73 0.0 0.0 0.00 0.00 0.00 12 1012.1
20260502114023 73 0.0 0.0 0.00 0.00 0.00 12 1012.2
20260502113520 73 0.0 0.0 0.00 0.00 0.00 12 1012.1
20260502113037 73 0.0 0.0 0.00 0.00 0.00 12 1012.2
20260502112523 73 0.0 0.0 0.00 0.00 0.00 12 1012.2
20260502112022 73 0.0 0.0 0.00 0.00 0.00 12 1012.2
20260502111538 73 0.0 0.0 0.00 0.00 0.00 12 1012.2
20260502111023 73 0.0 0.0 0.00 0.00 0.00 12 1012.2
20260502110522 73 0.0 0.0 0.00 0.00 0.00 12 1012.2
20260502110043 73 0.0 0.0 0.00 0.00 0.00 11 1012.2
20260502105522 73 0.0 0.0 0.00 0.00 0.00 12 1012.3
20260502105022 73 0.0 0.0 0.00 0.00 0.00 12 1012.3
20260502104541 73 0.0 0.0 0.00 0.00 0.00 12 1012.2
20260502104022 73 0.0 0.0 0.00 0.00 0.00 12 1012.2
20260502103522 73 0.0 0.0 0.00 0.00 0.00 12 1012.2
20260502103038 73 0.0 0.0 0.00 0.00 0.00 11 1012.1
20260502102522 73 0.0 0.0 0.00 0.00 0.00 11 1012.1
20260502102022 73 0.0 0.0 0.00 0.00 0.00 12 1012.1
20260502101555 73 0.0 0.0 0.00 0.00 0.00 11 1012.1
20260502101022 73 0.0 0.0 0.00 0.00 0.00 12 1012.2
20260502100522 74 0.0 0.0 0.00 0.00 0.00 11 1012.1
20260502091023 74 0.0 0.0 0.00 0.00 0.00 11 1012.0
20260502090522 73 0.0 0.0 0.00 0.00 0.00 11 1012.1
20260502071023 74 0.0 0.0 0.00 0.00 0.00 11 1011.8
20260502070523 74 0.0 0.0 0.00 0.00 0.00 11 1011.8
20260502070043 75 0.0 0.0 0.00 0.00 0.00 11 1011.8
20260502065518 75 0.0 0.0 0.00 0.00 0.00 11 1011.8
20260502065021 76 0.0 0.0 0.00 0.00 0.00 11 1011.7
20260502064607 76 0.0 0.0 0.00 0.00 0.00 11 1011.7
20260502064018 76 0.0 0.0 0.00 0.00 0.00 11 1011.6
20260502063518 76 0.0 0.0 0.00 0.00 0.00 11 1011.6
20260502063040 76 0.0 0.0 0.00 0.00 0.00 11 1011.6
20260502062521 77 0.0 0.0 0.00 0.00 0.00 11 1011.6
20260502062017 77 0.0 0.0 0.00 0.00 0.00 11 1011.5
20260502061540 77 0.0 0.0 0.00 0.00 0.00 11 1011.5
20260502061018 77 0.0 0.0 0.00 0.00 0.00 11 1011.4
20260502060522 77 0.0 0.0 0.00 0.00 0.00 11 1011.4
20260502060044 77 0.0 0.0 0.00 0.00 0.00 11 1011.3
20260502055519 77 0.0 0.0 0.00 0.00 0.00 11 1011.4
20260502055020 77 0.0 0.0 0.00 0.00 0.00 11 1011.3
20260502054538 77 0.0 0.0 0.00 0.00 0.00 10 1011.4
20260502054018 77 0.0 0.0 0.00 0.00 0.00 10 1011.3
20260502053520 77 0.0 0.0 0.00 0.00 0.00 10 1011.3
20260502053037 77 0.0 0.0 0.00 0.00 0.00 10 1011.4
20260502052519 78 0.0 0.0 0.00 0.00 0.00 10 1011.4
20260502052019 78 0.0 0.0 0.00 0.00 0.00 10 1011.5
20260502051537 79 0.0 0.0 0.00 0.00 0.00 10 1011.5
20260502051018 79 0.0 0.0 0.00 0.00 0.00 10 1011.4
20260502050518 80 0.0 0.0 0.00 0.00 0.00 9 1011.4
20260502050034 80 0.0 0.0 0.00 0.00 0.00 9 1011.2
20260502045518 80 0.0 0.0 0.00 0.00 0.00 9 1011.2
20260502045018 81 0.0 0.0 0.00 0.00 0.00 9 1011.2
20260502044534 81 0.0 0.0 0.00 0.00 0.00 9 1011.2
20260502044019 81 0.0 0.0 0.00 0.00 0.00 9 1011.1
20260502043522 81 0.0 0.0 0.00 0.00 0.00 9 1010.9
20260502043103 81 0.0 0.0 0.00 0.00 0.00 9 1010.9
20260502042518 81 0.0 0.0 0.00 0.00 0.00 9 1010.9
20260502042019 81 0.0 0.0 0.00 0.00 0.00 9 1010.9
20260502041543 81 0.0 0.0 0.00 0.00 0.00 9 1010.8
20260502041018 81 0.0 0.0 0.00 0.00 0.00 9 1010.7
20260502040518 82 0.0 0.0 0.00 0.00 0.00 9 1010.6
20260502040038 82 0.0 0.0 0.00 0.00 0.00 9 1010.6
20260502035518 82 0.0 0.0 0.00 0.00 0.00 9 1010.7
20260502035023 82 0.0 0.0 0.00 0.00 0.00 9 1010.7
20260502034537 82 0.0 0.0 0.00 0.00 0.00 9 1010.7
20260502034024 82 0.0 0.0 0.00 0.00 0.00 9 1010.6
20260502033522 82 0.0 0.0 0.00 0.00 0.00 9 1010.3
20260502033038 83 0.0 0.0 0.00 0.00 0.00 9 1010.3
20260502032522 83 0.0 0.0 0.00 0.00 0.00 9 1010.2
20260502032022 83 0.0 0.0 0.00 0.00 0.00 9 1010.1
20260502031541 83 0.0 0.0 0.00 0.00 0.00 9 1010.0
20260502031022 84 0.0 0.0 0.00 0.00 0.00 9 1010.0
20260502030521 84 0.0 0.0 0.00 0.00 0.00 9 1009.9
20260502030046 84 0.0 0.0 0.00 0.00 0.00 9 1009.7
20260502025521 84 0.0 0.0 0.00 0.00 0.00 9 1009.7
20260502025025 84 0.0 0.0 0.00 0.00 0.00 9 1009.7
20260502024540 84 0.0 0.0 0.00 0.00 0.00 9 1009.5
20260502024022 84 0.0 0.0 0.00 0.00 0.00 9 1009.6
20260502023522 85 0.0 0.0 0.00 0.00 0.00 9 1009.4
20260502023040 85 0.0 0.0 0.00 0.00 0.00 9 1009.4
20260502022521 85 0.0 0.0 0.00 0.00 0.00 9 1009.3
20260502022025 85 0.0 0.0 0.00 0.00 0.00 9 1009.3
20260502021538 85 0.0 0.0 0.00 0.00 0.00 9 1009.2
20260502021022 85 0.0 0.0 0.00 0.00 0.00 9 1009.2
20260502020525 86 0.0 0.0 0.00 0.00 0.00 9 1009.1
20260502020037 86 0.0 0.0 0.00 0.00 0.00 9 1009.2
20260502015526 86 0.0 0.0 0.00 0.00 0.00 9 1008.9
20260502015019 87 0.0 0.0 0.00 0.00 0.00 9 1009.0
20260502014537 87 0.0 0.0 0.00 0.00 0.00 9 1008.8
20260502014022 87 0.0 0.0 0.00 0.00 0.00 9 1008.8
20260502013522 87 0.0 0.0 0.00 0.00 0.00 9 1008.8
20260502013037 88 0.0 0.0 0.00 0.00 0.00 9 1008.9
20260502012522 88 0.0 0.0 0.00 0.00 0.00 9 1008.8
20260502012026 88 0.0 0.0 0.00 0.00 0.00 9 1008.7
20260502011537 88 0.0 0.0 0.00 0.00 0.00 9 1008.8
20260502011022 88 0.0 0.0 0.00 0.00 0.00 9 1008.7
20260502010522 88 0.0 0.0 0.00 0.00 0.00 9 1008.7
20260502010041 89 0.0 0.0 0.00 0.00 0.00 9 1008.6
20260502005522 89 0.0 0.0 0.00 0.00 0.00 9 1008.7
20260502005022 89 0.0 0.0 0.00 0.00 0.00 9 1008.6
20260502004543 90 0.0 0.0 0.00 0.00 0.00 9 1008.5
20260502004022 90 0.0 0.0 0.00 0.00 0.00 9 1008.6
20260502003521 90 0.0 0.0 0.00 0.00 0.00 9 1008.7
20260502003038 89 0.0 0.0 0.00 0.00 0.00 9 1008.6
20260502002521 89 0.0 0.0 0.00 0.00 0.00 9 1008.6
20260502002021 89 0.0 0.0 0.00 0.00 0.00 9 1008.7
20260502001538 90 0.0 0.0 0.00 0.00 0.00 9 1008.7
20260502001023 90 0.0 0.0 0.00 0.00 0.00 9 1008.7
20260502000522 89 0.0 0.0 0.00 0.00 0.00 9 1008.7
20260502000037 90 0.0 0.0 0.00 0.00 0.00 9 1008.7
20260501235522 89 0.0 0.0 0.00 0.00 0.00 9 1008.8
20260501235022 90 0.0 0.0 0.00 0.00 0.00 9 1009.0
20260501234543 90 0.0 0.0 0.00 0.00 0.00 9 1008.9
20260501234022 90 0.0 0.0 0.00 0.00 0.00 9 1008.8
20260501233525 90 0.0 0.0 0.00 0.00 0.00 9 1008.9
20260501233041 90 0.0 0.0 0.00 0.00 0.00 8 1008.8
20260501232522 90 0.0 0.0 0.00 0.00 0.00 9 1008.8
20260501232020 90 0.0 0.0 0.00 0.00 0.00 9 1008.9
20260501231538 91 0.0 0.0 0.00 0.00 0.00 9 1008.9
20260501231022 90 0.0 0.0 0.00 0.00 0.00 9 1008.9
20260501230522 91 0.0 0.0 0.00 0.00 0.00 8 1009.1
20260501230037 91 0.0 0.0 0.00 0.00 0.00 8 1009.0
20260501225522 91 0.0 0.0 0.00 0.00 0.00 8 1009.1
20260501225025 91 0.0 0.0 0.00 0.00 0.00 8 1009.1
20260501224537 91 0.0 0.0 0.00 0.00 0.00 8 1009.2
20260501224022 91 0.0 0.0 0.00 0.00 0.00 8 1009.2
20260501223522 91 0.0 0.0 0.00 0.00 0.00 9 1009.4
20260501223037 90 0.0 0.0 0.00 0.00 0.00 9 1009.5
20260501222523 90 0.0 0.0 0.00 0.00 0.00 9 1009.5
20260501222021 90 0.0 0.0 0.00 0.00 0.00 9 1009.6
20260501221535 90 0.0 0.0 0.00 0.00 0.00 9 1009.6
20260501221025 90 0.0 0.0 0.00 0.00 0.00 9 1009.6
20260501220522 90 0.0 0.0 0.00 0.00 0.00 9 1009.6
20260501220040 90 0.0 0.0 0.00 0.00 0.00 9 1009.7
20260501215522 90 0.0 0.0 0.00 0.00 0.00 9 1009.8
20260501215019 90 0.0 0.0 0.00 0.00 0.00 9 1009.9
20260501214538 90 0.0 0.0 0.00 0.00 0.00 9 1010.0
20260501214018 90 0.0 0.0 0.00 0.00 0.00 9 1010.1
20260501213522 90 0.0 0.0 0.00 0.00 0.00 9 1010.2
20260501213040 90 0.0 0.0 0.00 0.00 0.00 9 1010.4
20260501212522 89 0.0 0.0 0.00 0.00 0.00 9 1010.2
20260501212022 90 0.0 0.0 0.00 0.00 0.00 9 1010.3
20260501211539 90 0.0 0.0 0.00 0.00 0.00 9 1010.5
20260501211022 89 0.0 0.0 0.00 0.00 0.00 10 1010.4
20260501210525 89 0.0 0.0 0.00 0.00 0.00 10 1010.4
20260501210038 89 0.0 0.0 0.00 0.00 0.00 10 1010.5
20260501205522 89 0.0 0.0 0.00 0.00 0.00 10 1010.5
20260501205019 88 0.0 0.0 0.00 0.00 0.00 10 1010.6
20260501204552 88 0.0 0.0 0.00 0.00 0.00 10 1010.5
20260501204022 89 0.0 0.0 0.00 0.00 0.00 10 1010.7
20260501203522 89 0.0 0.0 0.00 0.00 0.00 10 1010.7
20260501203037 89 0.0 0.0 0.00 0.00 0.00 10 1010.6
20260501202522 88 0.0 0.0 0.00 0.00 0.00 10 1010.6
20260501202022 88 0.0 0.0 0.00 0.00 0.00 10 1010.6
20260501201538 88 0.0 0.0 0.00 0.00 0.00 10 1010.7
20260501201018 88 0.0 0.0 0.00 0.00 0.00 10 1010.7
20260501200518 88 0.0 0.0 0.00 0.00 0.00 10 1010.8
20260501200038 88 0.0 0.0 0.00 0.00 0.00 10 1011.0
20260501195522 88 0.0 0.0 0.00 0.00 0.00 10 1011.0
20260501195023 88 0.0 0.0 0.00 0.00 0.00 10 1010.9
20260501194542 88 0.0 0.0 0.00 0.00 0.00 10 1011.1
20260501194022 87 0.0 0.0 0.00 0.00 0.00 10 1011.1
20260501193522 87 0.0 0.0 0.00 0.00 0.00 10 1011.1
20260501193036 87 0.0 0.0 0.00 0.00 0.00 10 1011.2
20260501192519 87 0.0 0.0 0.00 0.00 0.00 10 1011.3
20260501192019 87 0.0 0.0 0.00 0.00 0.00 10 1011.3
20260501191542 86 0.0 0.0 0.00 0.00 0.00 10 1011.5
20260501191022 86 0.0 0.0 0.00 0.00 0.00 11 1011.5
20260501190519 86 0.0 0.0 0.00 0.00 0.00 11 1011.4
20260501190044 86 0.0 0.0 0.00 0.00 0.00 10 1011.6
20260501185519 86 0.0 0.0 0.00 0.00 0.00 11 1011.6
20260501185023 85 0.0 0.0 0.00 0.00 0.00 11 1011.6
20260501184545 85 0.0 0.0 0.00 0.00 0.00 11 1011.7
20260501184019 85 0.0 0.0 0.00 0.00 0.00 11 1011.7
20260501183521 85 0.0 0.0 0.00 0.00 0.00 11 1011.8
20260501183046 85 0.0 0.0 0.00 0.00 0.00 11 1011.8
20260501182518 85 0.0 0.0 0.00 0.00 0.00 11 1012.0
20260501182023 84 0.0 0.0 0.00 0.00 0.00 12 1011.9
20260501181538 84 0.0 0.0 0.00 0.00 0.00 11 1011.8
20260501181018 84 0.0 0.0 0.00 0.00 0.00 12 1011.9